Regional Weather Roundup
Issued by NWS

Current Version | Previous Version | Text Only | Print | Product List | Glossary On
Versions: 1 2 3 4 5 6 7 8 9 10 11 12 13 14 15 16 17 18 19 20 21 22 23 24 25 26 27 28 29 30 31 32 33 34 35 36
000
ASUS42 KTBW 230010
RWRFL
FLORIDA REGIONAL WEATHER ROUNDUP
NATIONAL WEATHER SERVICE TAMPA BAY RUSKIN FL
800 PM EDT WED OCT 22 2014

NOTE: "FAIR" INDICATES FEW OR NO CLOUDS BELOW 12,000 FEET WITH NO
SIGNIFICANT WEATHER AND/OR OBSTRUCTIONS TO VISIBILITY.


FLZ001>010-012>015-112-114-115-230100-
PANHANDLE FLORIDA

CITY           SKY/WX    TMP DP  RH WIND       PRES   REMARKS
PENSACOLA      CLEAR     68  48  48 N6        30.02R
PENSACOLA NAS  CLEAR     68  49  50 N8        30.02R
MILTON NAS     CLEAR     64  46  52 N5        30.04R
CRESTVIEW      CLEAR     65  47  52 N5        30.05R
DUKE FIELD     CLEAR     64  47  53 N6        30.02R
VALPARAISO     PTCLDY    66  46  49 N7        30.02R
MARY ESTHER    CLEAR     65  44  46 N6        30.02R
PANAMA CITY    FAIR      61  52  72 N3        30.01R
TYNDALL AFB    CLEAR     67  55  64 N3        30.02R
APALACHICOLA   CLEAR     68  56  65 N7        30.00R

STATION/POSITION SKY/WX   TEMP    WIND        PRES    WAVE   SWELL
                          AIR SEA DIR/SP/G            HT/PER HT/PER
                          (F)     (DEG/KT/KT) (MB)    (FT/S) (FT/S)
30.1N   87.6W              76 78   30/ 14/ 16 1016.0R   2/ 4
PANAMA CITY BEAC           69 78   10/  5/  6 1016.2R
CAPE SAN BLAS    NOT AVBL
TOWER C                    74      20/  7/  7 1015.7R
28.5N   84.5W              74 81   40/ 14/ 17 1015.0S   3/ 5

$$
FLZ011-016>038-118-127-128-134-139-239-230100-
NORTH FLORIDA

CITY           SKY/WX    TMP DP  RH WIND       PRES   REMARKS
TALLAHASSEE    CLEAR     68  47  46 NE3       30.01R
PERRY          CLEAR     63  52  67 N3        30.01R
CROSS CITY       N/A     64  54  69 NE3       29.99R
LAKE CITY      FAIR      57  52  82 NE3       30.02R
GAINESVILLE    CLEAR     67  51  56 NE7       30.00R
MAYPORT NAS    CLEAR     68  53  58 N10       30.03R
JACKSONVILLE   CLEAR     59  55  87 NE3       30.03R
JAX NAS        CLEAR     70  53  54 NE12      30.03R
JAX CRAIG      CLEAR     64  54  69 NE6       30.03R
JAX CECIL      CLEAR     63  54  72 VRB3      30.02R
FERNANDINA BEA FAIR      68  54  60 CALM      30.02R
ST AUGUSTINE   CLEAR     68  55  63 N12       30.03R

STATION/POSITION SKY/WX   TEMP    WIND        PRES    WAVE   SWELL
                          AIR SEA DIR/SP/G            HT/PER HT/PER
                          (F)     (DEG/KT/KT) (MB)    (FT/S) (FT/S)
SHELL POINT                74      10/  6/  8   N/A
KEATON BEACH               69      10/  3/  4 1016.1R
CEDAR KEY                  71      20/  6/  7 1015.8R
FERNANDINA                 68 75   20/  6/  7 1016.1S
30.7N   81.3W                 77                N/A     3/ 5
MAYPORT                    68 78   30/  8/ 11   N/A
31.4N   80.9W              67 76  360/ 10/ 14 1016.8S   2/ 5   2/ 5
ST AUGUSTINE               69      20/ 16/ 19 1016.9R

$$
FLZ040-043>046-052-053-057-058-063-144-230100-
INTERIOR CENTRAL FLORIDA

CITY           SKY/WX    TMP DP  RH WIND       PRES   REMARKS
OCALA          PTCLDY    66  54  63 N5        29.99R
THE VILLAGES     N/A     70  59  68 NE8       29.89R
LEESBURG       PTCLDY    71  60  68 NE13      30.00R
SANFORD        CLEAR     70  60  70 NE7       29.99
ORLANDO EXEC   CLEAR     72  62  71 NE9       29.98R
ORLANDO INTL   PTCLDY    72  61  68 NE14      29.98R
KISSIMMEE      CLEAR     75  64  69 NE12      29.98R
WINTER HAVEN   PTCLDY    75  59  57 NE8       29.97R
LAKELAND       PTCLDY    73  61  64 CALM      29.96R
BARTOW         FAIR      70  63  78 SE3       29.97R
OKEECHOBEE     CLOUDY    73  68  83 MISG      29.95

$$
FLZ041-047-054-059-064-141-147-230100-
EAST CENTRAL FLORIDA

CITY           SKY/WX    TMP DP  RH WIND       PRES   REMARKS
DAYTONA BEACH  PTCLDY    70  58  65 NE10      30.01R
DELAND           N/A     66  57  72 NE3       30.01R
JFK SPACE CTR  PTCLDY    71  62  72 NE10      29.98R
CAPE CANAVERAL PTCLDY    72  62  69 N10       29.96R
PATRICK AFB    PTCLDY    74  64  69 N15       29.97R
MELBOURNE      MOCLDY    75  64  68 N12       29.97R
VERO BEACH     MOCLDY    73  65  75 N8        29.95R
FT PIERCE      CLOUDY    75  65  70 CALM      29.95R

STATION/POSITION SKY/WX   TEMP    WIND        PRES    WAVE   SWELL
                          AIR SEA DIR/SP/G            HT/PER HT/PER
                          (F)     (DEG/KT/KT) (MB)    (FT/S) (FT/S)
28.5N   80.2W              76 82  360/ 16/ 19 1014.5R
28.9N   78.5W              76 80  360/ 14/ 16 1014.4R   3/ 5   2/10
TRIDENT PIER               72 80   10/  7/  9 1014.4R
28.4N   80.5W                 80                N/A     2/ 4
27.6N   80.2W                 80                N/A     2/11   2/11

$$
FLZ050-056-061-142-242-148-248-149-249-151-251-155-255-
160-260-230100-
WEST CENTRAL FLORIDA

CITY           SKY/WX    TMP DP  RH WIND       PRES   REMARKS
CRYSTAL RIVER  FAIR      70  55  60 CALM      29.98R
INVERNESS      FAIR      66  59  77 CALM      29.98R
BROOKSVILLE    PTCLDY    70  59  68 N6        29.97R
ZEPHYRHILLS    FAIR      70  59  68 CALM      29.97R
CLEARWATER     CLEAR     74  63  68 N9        29.95R
TAMPA INTL     MOCLDY    74  61  63 N9        29.95R
TAMPA EXEC     CLEAR     70  63  78 CALM      29.96R
PLANT CITY     PTCLDY    75  61  60 NE3       29.97R
MACDILL AFB    PTCLDY    74  66  75 N6        29.95R
ST PETERSBURG  PTCLDY    77  64  64 N8        29.93R
SARASOTA       MOCLDY    76  66  71 N6        29.92S
VENICE           N/A     79  68  69 MISG      29.94S

STATION/POSITION SKY/WX   TEMP    WIND        PRES    WAVE   SWELL
                          AIR SEA DIR/SP/G            HT/PER HT/PER
                          (F)     (DEG/KT/KT) (MB)    (FT/S) (FT/S)
CEDAR KEY                  71      20/  6/  7 1015.8R
28.5N   84.5W              74 81   40/ 14/ 17 1015.0S   3/ 5
27.3N   84.3W                 82                N/A     3/ 5
CLEARWATER BEACH NOT AVBL
MIDDLE TAMPA BAY           78      10/ 12/ 14 1014.1R
VENICE                     80 81   20/  4/  4 1013.2R

$$
FLZ066-069-070-075>078-162-262-165-265-230100-
SOUTHWEST FLORIDA AND KEYS

CITY           SKY/WX    TMP DP  RH WIND       PRES   REMARKS
PUNTA GORDA    CLOUDY    77  70  79 NE6       29.94S
FT MYERS       CLOUDY    78  71  79 CALM      29.92R
SOUTHWEST INTL CLOUDY    76  72  87 CALM      29.93R
NAPLES         CLOUDY    79  70  74 SE3       29.92R
MARATHON       LGT RAIN  74  50  43 E3        29.94R
KEY WEST NAS   LGT RAIN  73  72  96 E5        29.94R
KEY WEST INTL  HVY RAIN  73  73 100 E7        29.94R FOG

STATION/POSITION SKY/WX   TEMP    WIND        PRES    WAVE   SWELL
                          AIR SEA DIR/SP/G            HT/PER HT/PER
                          (F)     (DEG/KT/KT) (MB)    (FT/S) (FT/S)
VENICE                     80 81   20/  4/  4 1013.2R
NAPLES                     78 83  150/  3/  4 1013.8R
26.0N   85.6W              80 82   50/ 16/ 19 1012.7F   4/ 6
DRY TORTUGAS               77      80/ 12/ 14 1012.6R
NW FL BAY                  77      80/  6/  7 1013.4R
SAND KEY                   75      90/ 13/ 15 1013.0R
SOMBRERO KEY               76      80/ 14/ 15 1014.5R
LONG KEY                   76 79  100/  7/  8 1014.9R
MOLASSES REEF              77 83  120/  6/  6 1014.2R

$$
FLZ067-068-071>074-168-172>174-230100-
SOUTHEAST FLORIDA

CITY           SKY/WX    TMP DP  RH WIND       PRES   REMARKS
W PALM BEACH   CLOUDY    79  70  74 N3        29.93R
FT LAUDER-EXEC CLOUDY    79  71  76 CALM      29.93R
FT LAUDERDALE  LGT RAIN  79  74  84 CALM      29.93R
POMPANO BEACH  CLOUDY    80  73  79 CALM      29.93S
PEMBROKE PINES LGT RAIN  77  72  84 CALM      29.95R
OPA LOCKA      LGT RAIN  75  73  93 W3        29.94R
MIAMI          LGT RAIN  75  72  90 W3        29.95R
WEST KENDALL   LGT RAIN  76  73  91 CALM      29.95R
HOMESTEAD      CLOUDY    74  73  95 W2        29.95R

STATION/POSITION SKY/WX   TEMP    WIND        PRES    WAVE   SWELL
                          AIR SEA DIR/SP/G            HT/PER HT/PER
                          (F)     (DEG/KT/KT) (MB)    (FT/S) (FT/S)
PORT EVERGLADES            79      90/  1/  2 1013.3
VIRGINIA KEY               76 81  350/  2/  3 1014.2R
LAKE WORTH                 80 83   30/  7/  9 1013.3R
FOWEY ROCKS                79 81   10/  3/  4 1014.2R
SETTLEMENT POINT           80     350/  4/  5 1014.4R

$$




USA.gov is the U.S. government's official web portal to all federal, state and local government web resources and services.